This demonstration page uses our WeatherBlox Daily Observations layout. Learn more.

38.89511, -77.03637

Hourly Observations for June 18, 2018

Temp ( °F °C ) Dew Point ( °F °C ) Humidity (%) Winds ( mph kmh ) Pressure ( in mb ) Visibility ( mi km ) Precip ( " mm )
12:52 am 00:52 Mostly Cloudy 77 25 67 19.4 71 71 Calm 30.06 1018 10 16.09344 0 0
1:52 am 01:52 Mostly Cloudy 77 25 69 20.6 77 77 SSE 5 7 30.06 1018 10 16.09344 0 0
2:52 am 02:52 Mostly Cloudy 76 24.4 69 20.6 79 79 Calm 30.06 1018 10 16.09344 0 0
3:52 am 03:52 Mostly Cloudy 75 23.9 69 20.6 82 82 SSE 3 6 30.06 1018 10 16.09344 0 0
4:52 am 04:52 Partly Cloudy 74 23.3 69 20.6 85 85 SSE 3 6 30.06 1018 10 16.09344 0 0
5:52 am 05:52 Mostly Cloudy 74 23.3 69 20.6 85 85 S 3 6 30.06 1018 10 16.09344 0 0
6:52 am 06:52 Mostly Cloudy 75 23.9 70 21.1 84 84 undefined N/A 30.06 1018 10 16.09344 0 0
7:52 am 07:52 Mostly Cloudy 78 25.6 70 21.1 76 76 SSE 5 7 30.06 1018 10 16.09344 0 0
8:52 am 08:52 Mostly Cloudy 80 26.7 70 21.1 71 71 S 7 11 30.03 1017 10 16.09344 0 0
9:52 am 09:52 Mostly Cloudy 82 27.8 71 21.7 69 69 S 7 11 30.03 1017 10 16.09344 0 0
10:52 am 10:52 Mostly Cloudy 84 28.9 72 22.2 67 67 S 12 19 30.03 1017 10 16.09344 0 0
11:52 am 11:52 Mostly Cloudy 87 30.6 71 21.7 59 59 S 13 20 30.03 1017 10 16.09344 0 0
12:52 pm 12:52 Mostly Cloudy 88 31.1 70 21.1 55 55 S 12 19 30 1016 10 16.09344 0 0
1:52 pm 13:52 Mostly Cloudy 88 31.1 71 21.7 57 57 S 14 22 29.97 1015 10 16.09344 0 0
2:52 pm 14:52 Mostly Cloudy 89 31.7 73 22.8 59 59 S 13 20 29.97 1015 10 16.09344 0 0
3:52 pm 15:52 Mostly Cloudy 89 31.7 74 23.3 61 61 S 15 24 29.94 1014 10 16.09344 0 0
4:52 pm 16:52 Mostly Cloudy 89 31.7 74 23.3 61 61 S 12 19 29.91 1013 10 16.09344 0 0
5:52 pm 17:52 Mostly Cloudy 90 32.2 74 23.3 59 59 SSW 12 19 29.88 1012 10 16.09344 0 0
6:52 pm 18:52 Sunny 89 31.7 74 23.3 61 61 SSW 9 15 29.88 1012 10 16.09344 0 0
7:04 pm 19:04 Mostly Cloudy 88 31.1 75 23.9 66 66 S 10 17 29.88 1012 10 16.09344 0 0
7:52 pm 19:52 Mostly Cloudy 86 30 75 23.9 70 70 S 9 15 29.85 1011 10 16.09344 0 0
8:52 pm 20:52 Mostly Cloudy 85 29.4 75 23.9 72 72 S 7 11 29.85 1011 10 16.09344 0 0
9:52 pm 21:52 Mostly Cloudy 83 28.3 75 23.9 77 77 S 9 15 29.88 1012 10 16.09344 0 0
10:52 pm 22:52 Clear 86 30 70 21.1 59 59 SW 10 17 29.88 1012 10 16.09344 0 0
10:55 pm 22:55 Partly Cloudy 86 30 70 21.1 59 59 SW 9 15 29.91 1013 10 16.09344 0 0
11:52 pm 23:52 Mostly Cloudy 84 28.9 70 21.1 63 63 SW 7 11 29.88 1012 10 16.09344 0 0

Powered by AerisWeather